User: anonymous   Login
Location: *
(33.8649°S, 62.1526°E)
Time: 15:37:30
(UTC+00:00)
Language:

OAO 3 Copernicus - Orbit

View from above orbital plane
View from above orbital plane
View from above satellite
View from above satellite

Ground track
Ground track

The orbit data is extracted from the following two-line orbital elements,

1 06153U 72065A   21104.27818738  .00000042  00000-0  13479-4 0  9991
2 06153  35.0080  37.4698 0007304 298.3887 193.8964 14.57976563584616
Epoch (UTC): 14 April 2021 06:40:35
Eccentricity: 0.0007304
inclination: 35.0080°
perigee height: 694 km
apogee height: 705 km
right ascension of ascending node: 37.4698°
argument of perigee: 298.3887°
revolutions per day: 14.57976563
mean anomaly at epoch: 193.8964°
orbit number at epoch: 58461

The dashed part of the orbit path shows where the satellite is in the earth's shadow,  

DLR